Location: Trebic
(49.2170°N, 15.8830°E)
Time: 13:06:45
(UTC+02:00)

SR - Visible Passes

Search period start: 17 October 2019 00:00
Search period end: 27 October 2019 00:00
Orbit: 575 x 881 km, 66.7° (Epoch: 16 October)

Date Brightness Start Highest point End Pass type
(mag) Time Alt. Az. Time Alt. Az. Time Alt. Az.
17 Oct ? 03:07:16 14° N 03:07:16 14° N 03:09:06 10° NNE visible
17 Oct ? 04:47:17 10° NNW 04:50:09 14° N 04:53:05 10° NE visible
17 Oct ? 06:29:28 10° NNW 06:34:18 26° NNE 06:39:13 10° E visible
18 Oct ? 02:18:58 12° NNE 02:18:58 12° NNE 02:19:27 10° NNE visible
18 Oct ? 03:58:22 12° NNW 03:59:38 13° N 04:02:20 10° NNE visible
18 Oct ? 05:39:53 10° NNW 05:44:02 20° NNE 05:48:16 10° ENE visible
19 Oct ? 03:10:05 14° N 03:10:05 14° N 03:12:05 10° NNE visible
19 Oct ? 04:50:13 10° NNW 04:53:39 16° NNE 04:57:10 10° NE visible
19 Oct ? 06:32:06 10° NNW 06:37:28 36° NE 06:42:55 10° ESE visible
20 Oct ? 02:21:48 11° NNE 02:21:48 11° NNE 02:22:14 10° NNE visible
20 Oct ? 04:01:13 12° NNW 04:03:10 14° N 04:06:06 10° NE visible
20 Oct ? 05:42:34 10° NNW 05:47:21 26° NNE 05:52:14 10° E visible
21 Oct ? 03:12:58 13° N 03:12:58 13° N 03:15:24 10° NNE visible
21 Oct ? 04:52:59 10° NNW 04:57:05 19° NNE 05:01:16 10° ENE visible
21 Oct ? 06:34:46 10° NNW 06:40:31 52° NE 06:46:18 10° ESE visible
22 Oct ? 02:24:45 11° NNE 02:24:45 11° NNE 02:25:11 10° NNE visible
22 Oct ? 04:04:09 12° NNW 04:06:41 16° NNE 04:10:09 10° NE visible
22 Oct ? 05:45:12 10° NNW 05:50:33 35° NE 05:55:57 10° ESE visible
23 Oct ? 03:15:59 14° N 03:16:12 14° N 03:19:07 10° NE visible
23 Oct ? 04:55:39 10° NNW 05:00:25 25° NNE 05:05:14 10° E visible
23 Oct ? 06:37:29 10° NW 06:43:25 80° NE 06:49:21 10° SE visible
24 Oct ? 02:27:52 11° NNE 02:27:52 11° NNE 02:28:27 10° NNE visible
24 Oct ? 04:07:17 14° N 04:10:07 19° NNE 04:14:15 10° ENE visible
24 Oct ? 05:47:52 10° NNW 05:53:36 50° NE 05:59:22 10° ESE visible
25 Oct ? 03:19:14 15° N 03:19:43 15° NNE 03:23:08 10° NE visible
25 Oct ? 04:58:39 12° NNW 05:03:37 34° NE 05:08:58 10° ESE visible
25 Oct ? 06:40:19 10° NW 06:46:11 67° WSW 06:52:01 10° SSE visible
26 Oct ? 02:31:15 12° NNE 02:31:15 12° NNE 02:32:08 10° NE visible
26 Oct ? 04:10:42 18° N 04:13:27 24° NNE 04:18:14 10° E visible
26 Oct ? 05:50:35 10° NW 05:56:31 77° NE 06:02:26 10° SE visible
